Regional Weather Roundup
Issued by NWS

Home | Current Version | Previous Version | Graphics & Text | Print | Product List | Glossary On
Versions: 1 2 3 4 5 6 7 8 9 10 11 12 13 14 15 16 17 18 19 20 21 22 23 24 25 26 27
000
ASUS45 KBOU 221707
RWRCO

WEATHER ROUNDUP FOR COLORADO
NATIONAL WEATHER SERVICE DENVER/BOULDER CO
1100 AM MDT TUE AUG 22 2017

NOTE: "FAIR" INDICATES FEW OR NO CLOUDS BELOW 12000 FEET WITH NO
SIGNIFICANT WEATHER AND/OR OBSTRUCTIONS TO VISIBILITY.

COZ001>005-013-030-031-221800-
...NORTHWEST COLORADO...

CITY           SKY/WX    TMP DP  RH WIND       PRES   REMARKS
CRAIG          FAIR      78  36  21 N6        30.35F
HAYDEN         FAIR      76  38  25 VRB3      30.39F
MEEKER         FAIR      77  39  25 CALM      30.35F
RABBIT EARS PA FAIR      61  36  39 W3        30.67S
STEAMBOAT SPGS FAIR      72  40  31 CALM      30.40S
WALDEN         FAIR      70  37  30 CALM      30.49F
$$

COZ006>008-011-221800-
...WEST CENTRAL VALLEYS...

CITY           SKY/WX    TMP DP  RH WIND       PRES   REMARKS
GRAND JUNCTION FAIR      82  45  27 SE9       30.27S
MONTROSE       FAIR      76  46  34 CALM      30.36F
EAGLE          FAIR      69  41  36 CALM      30.41F
RIFLE          FAIR      75  43  31 CALM      30.31F
DELTA          FAIR      77  43  29 CALM      30.32F
NUCLA          FAIR      77  41  27 NW5       30.39F
$$

COZ017>023-064>068-221800-
...SOUTHWEST COLORADO...

CITY           SKY/WX    TMP DP  RH WIND       PRES   REMARKS
DURANGO        FAIR      72  44  36 NE9       30.42S
CORTEZ         CLOUDY    69  55  60 CALM      30.37F
PAGOSA SPRINGS FAIR      69  43  39 CALM      30.48F
TELLURIDE      PTSUNNY   64  41  42 CALM      30.57S
WOLF CREEK PAS RAIN      45  41  87 CALM      30.81S
$$

COZ009-010-012-014-032>034-037-058>063-221800-
...CENTRAL COLORADO...

CITY           SKY/WX    TMP DP  RH WIND       PRES   REMARKS
ASPEN          FAIR      70  39  32 N5        30.45F
BUENA VISTA    PTSUNNY   64  43  47 CALM      30.51F
COPPER MTN     PTSUNNY   59  23  25 CALM      30.78S
BERTHOUD PASS  FAIR      50  45  81 E7        30.81S
COTTONWOOD PAS PTSUNNY   64  37  36 E8        30.63F
GUNNISON       FAIR      62  45  53 VRB3      30.50F
KREMMLING      FAIR      73  41  31 CALM      30.47F
LEADVILLE      FAIR      59  33  37 S5        30.61F
SALIDA         FAIR      63  46  53 CALM      30.56F
SUNLIGHT       CLOUDY    59  36  41 CALM      30.71S
WILKERSON PASS FAIR      54  30  40 SW6       30.76S
$$

COZ069>075-221800-
...SAN LUIS VALLEY/SANGRE DE CRISTO MOUNTAINS...

CITY           SKY/WX    TMP DP  RH WIND       PRES   REMARKS
ALAMOSA        FAIR      66  46  48 VRB5      30.47F
DEL NORTE      PTSUNNY   63  46  55 W7        30.51F
LA VETA PASS   NOT AVBL
SAGUACHE         N/A    N/A N/A N/A MISG        N/A
$$

COZ035-036-038>040-221800-
...NORTHERN COLORADO FRONT RANGE...

CITY           SKY/WX    TMP DP  RH WIND       PRES   REMARKS
DENVER INTL AP PTSUNNY   74  57  55 SE10G18   30.33F
DMNS CITY PARK   N/A     74  50  42 W3G12     30.33F
AURORA         PTSUNNY   72  52  48 SW5       30.35F
FRONT RANGE AP FAIR      72  59  64 E13G23    30.35F
ERIE MUNI ARPT FAIR      72  56  57 N3        30.38S
BOULDER MUN AP PTSUNNY   68  55  64 NW7       30.34F
CENTENNIAL     PTSUNNY   72  51  47 VRB3      30.35F
BROOMFIELD     PTSUNNY   70  54  56 CALM      30.36F
FORT COLLINS   CLOUDY    67  58  72 SE8       30.35S
LONGMONT       FAIR      72  58  63 NE5       30.35F
$$

COZ041-046-047-076>085-087-088-221800-
...PIKES PEAK/PALMER DIVIDE AND SOUTHERN FOOTHILLS...

CITY           SKY/WX    TMP DP  RH WIND       PRES   REMARKS
COLO. SPRINGS  PTSUNNY   66  59  78 SE14      30.43S
A. F. ACADEMY  CLOUDY    65  55  69 S13       30.43S
SCHRIEVER AFB  CLOUDY    62  58  86 S10       30.44R
CHEYENNE MTN   PTSUNNY   62  58  85 S17       30.40S
ELLICOTT       CLOUDY   N/A N/A N/A SE8       30.43R
FALCON         CLOUDY    61  57  86 S13G23    30.47S
FORT CARSON    PTSUNNY   68  59  73 SE12G18   30.40S
LIMON          FAIR      69  55  60 SE13      30.38F
MONUMENT HILL  FAIR      68  55  64 S12       30.45S
CANON CITY     SUNNY     73  57  56 SE6       30.37F
WALSENBURG     CLOUDY    72  59  64 E7        30.42S
TRINIDAD       CLOUDY    70  57  63 N6        30.40S
$$

COZ042>045-048>051-090-091-221800-
...NORTHEAST COLORADO...

CITY           SKY/WX    TMP DP  RH WIND       PRES   REMARKS
GREELEY ARPT   CLOUDY    71  58  63 SE13      30.34S
AKRON          FAIR      70  50  49 SE15      30.35F
BURLINGTON     FAIR      69  56  62 VRB3      30.34F
WRAY           NOT AVBL
YUMA           FAIR      66  41  39 E8        30.34S
STERLING       FAIR      72  52  49 SE9       30.32S
HOLYOKE        FAIR      73  54  49 SE9       30.33S
FORT MORGAN    FAIR      72  51  46 SE9       30.34F
$$

COZ086-089-092>099-221800-
...SOUTHEAST COLORADO...

CITY           SKY/WX    TMP DP  RH WIND       PRES   REMARKS
PUEBLO         PTSUNNY   73  60  63 E7        30.35F
LA JUNTA       CLOUDY    70  60  70 E10       30.34S
LAMAR          FAIR      72  57  59 E10       30.30S
SPRINGFIELD      N/A     70  62  76 NE16      30.32S
$$




USA.gov is the U.S. government's official web portal to all federal, state and local government web resources and services.